This is the latest recevied weather packets stored in our database for station/object SP1BMW-13. If no packets are shown the sender has not sent any weather packets the latest 10 day(s).
| Time | Temp. | Humidity | Pressure | Rain* | Wind** | Luminosity | Snow |
|---|---|---|---|---|---|---|---|
| 1787661338 | 23.89° C | 43% | 1018.3 hPa | 0 mm | 1.79 m/s, 49° | 676 W/m² | - |
| 1787661277 | 23.89° C | 43% | 1018.1 hPa | 0 mm | 2.24 m/s, 41° | 675 W/m² | - |
| 1787661217 | 23.89° C | 43% | 1018.5 hPa | 0 mm | 2.24 m/s, 34° | 671 W/m² | - |
| 1787661159 | 23.89° C | 41% | 1018.2 hPa | 0 mm | 1.34 m/s, 42° | 666 W/m² | - |
| 1787661098 | 23.89° C | 40% | 1018.6 hPa | 0 mm | 2.68 m/s, 120° | 659 W/m² | - |
| 1787661037 | 23.89° C | 40% | 1018.2 hPa | 0 mm | 2.24 m/s, 36° | 655 W/m² | - |
| 1787660978 | 23.89° C | 43% | 1018.3 hPa | 0 mm | 0.45 m/s, 75° | 652 W/m² | - |
| 1787660917 | 23.89° C | 44% | 1018.3 hPa | 0 mm | 0.89 m/s, 12° | 653 W/m² | - |
| 1787660857 | 23.89° C | 41% | 1018.2 hPa | 0 mm | 1.79 m/s, 143° | 653 W/m² | - |
| 1787660798 | 23.89° C | 42% | 1018.1 hPa | 0 mm | 2.24 m/s, 51° | 655 W/m² | - |
| 1787660737 | 23.89° C | 41% | 1018.3 hPa | 0 mm | 0.45 m/s, 136° | 659 W/m² | - |
| 1787660677 | 23.89° C | 47% | 1018.2 hPa | 0 mm | 0.45 m/s, 94° | 665 W/m² | - |
| 1787660618 | 23.89° C | 45% | 1018.1 hPa | 0 mm | 0.45 m/s, 128° | 668 W/m² | - |
| 1787660558 | 23.89° C | 48% | 1018.4 hPa | 0 mm | 0.89 m/s, 60° | 673 W/m² | - |
| 1787660497 | 23.89° C | 46% | 1018.4 hPa | 0 mm | 0.89 m/s, 141° | 676 W/m² | - |
| 1787660438 | 23.33° C | 44% | 1018.4 hPa | 0 mm | 1.79 m/s, 116° | 674 W/m² | - |
| 1787660377 | 23.33° C | 47% | 1018.3 hPa | 0 mm | 0.45 m/s, 145° | 672 W/m² | - |
| 1787660317 | 23.33° C | 47% | 1018.3 hPa | 0 mm | 0.89 m/s, 88° | 672 W/m² | - |
| 1787660257 | 23.33° C | 47% | 1018.3 hPa | 0 mm | 1.79 m/s, 46° | 675 W/m² | - |
| 1787660197 | 23.33° C | 50% | 1018.1 hPa | 0 mm | 0.45 m/s, 70° | 675 W/m² | - |
| 1787660137 | 22.78° C | 48% | 1018.4 hPa | 0 mm | 0 m/s | 670 W/m² | - |
| 1787660077 | 22.78° C | 48% | 1018.3 hPa | 0 mm | 1.79 m/s, 31° | 666 W/m² | - |
| 1787660018 | 22.78° C | 48% | 1018.5 hPa | 0 mm | 0.45 m/s, 63° | 667 W/m² | - |
| 1787659957 | 22.22° C | 49% | 1018.4 hPa | 0 mm | 1.34 m/s, 51° | 668 W/m² | - |
| 1787659897 | 22.22° C | 49% | 1018.6 hPa | 0 mm | 0.89 m/s, 128° | 678 W/m² | - |
* Rain latest hour (hover to see other rain measurements)
** Current wind speed in m/s (hover to see current wind gust speed)